| time (UTC) | temp F | wind direction | speed MPH | gust MPH | rain 1hr in | rain 24hr in | rain mn in | humidity % | barometer mb |
| 20260503200516 | 51 | 340 | 0.0 | 0.0 | 0.00 | 0.00 | 0.00 | 80 | 1016.9 |
| 20260503200016 | 52 | 338 | 0.0 | 0.0 | 0.00 | 0.00 | 0.00 | 79 | 1016.6 |
| 20260503195516 | 52 | 342 | 0.0 | 1.0 | 0.00 | 0.00 | 0.00 | 78 | 1016.6 |
| 20260503195016 | 52 | 337 | 0.0 | 1.0 | 0.00 | 0.00 | 0.00 | 80 | 1016.9 |
| 20260503194516 | 53 | 338 | 0.0 | 0.0 | 0.00 | 0.00 | 0.00 | 79 | 1016.9 |
| 20260503194016 | 53 | 337 | 0.0 | 0.0 | 0.00 | 0.00 | 0.00 | 80 | 1016.9 |
| 20260503193516 | 53 | 337 | 0.0 | 0.0 | 0.00 | 0.00 | 0.00 | 79 | 1016.9 |
| 20260503193016 | 53 | 336 | 0.0 | 0.0 | 0.00 | 0.00 | 0.00 | 77 | 1016.9 |
| 20260503192516 | 54 | 337 | 0.0 | 0.0 | 0.00 | 0.00 | 0.00 | 76 | 1016.6 |
| 20260503192016 | 54 | 338 | 0.0 | 0.0 | 0.00 | 0.00 | 0.00 | 78 | 1016.6 |
| 20260503191516 | 55 | 338 | 0.0 | 0.0 | 0.00 | 0.00 | 0.00 | 76 | 1016.6 |
| 20260503191016 | 55 | 337 | 1.0 | 1.0 | 0.00 | 0.00 | 0.00 | 68 | 1016.6 |
| 20260503190516 | 56 | 336 | 0.0 | 0.0 | 0.00 | 0.00 | 0.00 | 77 | 1016.6 |
| 20260503190016 | 56 | 336 | 0.0 | 0.0 | 0.00 | 0.00 | 0.00 | 66 | 1016.6 |
| 20260503185516 | 57 | 338 | 1.0 | 1.0 | 0.00 | 0.00 | 0.00 | 66 | 1016.6 |
| 20260503185016 | 57 | 335 | 0.0 | 0.0 | 0.00 | 0.00 | 0.00 | 69 | 1016.3 |
| 20260503184516 | 58 | 330 | 0.0 | 0.0 | 0.00 | 0.00 | 0.00 | 66 | 1016.3 |
| 20260503184016 | 58 | 331 | 0.0 | 0.0 | 0.00 | 0.00 | 0.00 | 62 | 1016.3 |
| 20260503183516 | 58 | 332 | 0.0 | 0.0 | 0.00 | 0.00 | 0.00 | 65 | 1016.3 |
| 20260503183016 | 60 | 336 | 0.0 | 0.0 | 0.00 | 0.00 | 0.00 | 71 | 1016.3 |
| 20260503182516 | 60 | 336 | 0.0 | 0.0 | 0.00 | 0.00 | 0.00 | 59 | 1015.9 |
| 20260503182016 | 61 | 337 | 0.0 | 1.0 | 0.00 | 0.00 | 0.00 | 62 | 1015.9 |
| 20260503181516 | 61 | 322 | 0.0 | 0.0 | 0.00 | 0.00 | 0.00 | 60 | 1015.9 |
| 20260503181016 | 62 | 332 | 0.0 | 0.0 | 0.00 | 0.00 | 0.00 | 52 | 1015.9 |
| 20260503180516 | 64 | 329 | 0.0 | 0.0 | 0.00 | 0.00 | 0.00 | 56 | 1015.9 |
| 20260503180016 | 65 | 329 | 0.0 | 0.0 | 0.00 | 0.00 | 0.00 | 53 | 1015.9 |
| 20260503175516 | 66 | 326 | 0.0 | 0.0 | 0.00 | 0.00 | 0.00 | 44 | 1015.9 |
| 20260503175016 | 67 | 324 | 0.0 | 0.0 | 0.00 | 0.00 | 0.00 | 42 | 1015.2 |
| 20260503174516 | 69 | 318 | 1.0 | 1.0 | 0.00 | 0.00 | 0.00 | 40 | 1015.2 |
| 20260503174016 | 71 | 318 | 0.0 | 0.0 | 0.00 | 0.00 | 0.00 | 36 | 1015.2 |
| 20260503173516 | 73 | 320 | 0.0 | 0.0 | 0.00 | 0.00 | 0.00 | 35 | 1015.9 |
| 20260503173016 | 74 | 327 | 0.0 | 0.0 | 0.00 | 0.00 | 0.00 | 31 | 1015.9 |
| 20260503172516 | 75 | 310 | 1.0 | 6.0 | 0.00 | 0.00 | 0.00 | 29 | 1015.2 |
| 20260503172016 | 76 | 310 | 1.0 | 1.0 | 0.00 | 0.00 | 0.00 | 29 | 1015.2 |
| 20260503171516 | 76 | 296 | 1.0 | 1.0 | 0.00 | 0.00 | 0.00 | 26 | 1015.2 |
| 20260503171016 | 76 | 267 | 2.0 | 3.0 | 0.00 | 0.00 | 0.00 | 26 | 1015.9 |
| 20260503170516 | 77 | 312 | 1.0 | 2.0 | 0.00 | 0.00 | 0.00 | 26 | 1015.9 |
| 20260503150516 | 79 | 258 | 9.0 | 11.0 | 0.00 | 0.00 | 0.00 | 21 | 1016.6 |
| 20260503130516 | 80 | 337 | 1.0 | 10.0 | 0.00 | 0.00 | 0.00 | 24 | 1017.3 |
| 20260503110516 | 78 | 144 | 4.0 | 5.0 | 0.00 | 0.00 | 0.00 | 25 | 1019.0 |
| 20260503081516 | 72 | 252 | 9.0 | 13.0 | 0.00 | 0.00 | 0.00 | 35 | 1020.0 |
| 20260503081016 | 72 | 287 | 4.0 | 6.0 | 0.00 | 0.00 | 0.00 | 33 | 1020.0 |
| 20260503080516 | 72 | 209 | 10.0 | 10.0 | 0.00 | 0.00 | 0.00 | 34 | 1020.0 |
| 20260503072516 | 70 | 222 | 4.0 | 4.0 | 0.00 | 0.00 | 0.00 | 37 | 1020.0 |
| 20260503072016 | 69 | 239 | 8.0 | 11.0 | 0.00 | 0.00 | 0.00 | 37 | 1020.0 |
| 20260503071516 | 70 | 198 | 8.0 | 12.0 | 0.00 | 0.00 | 0.00 | 38 | 1020.0 |
| 20260503071016 | 69 | 294 | 7.0 | 10.0 | 0.00 | 0.00 | 0.00 | 37 | 1020.0 |
| 20260503070516 | 69 | 238 | 4.0 | 5.0 | 0.00 | 0.00 | 0.00 | 38 | 1020.0 |
| 20260503055016 | 62 | 311 | 4.0 | 6.0 | 0.00 | 0.00 | 0.00 | 47 | 1020.0 |
| 20260503054516 | 61 | 233 | 9.0 | 10.0 | 0.00 | 0.00 | 0.00 | 46 | 1020.0 |
| 20260503054016 | 60 | 332 | 1.0 | 1.0 | 0.00 | 0.00 | 0.00 | 57 | 1020.0 |
| 20260503053516 | 58 | 344 | 0.0 | 0.0 | 0.00 | 0.00 | 0.00 | 63 | 1020.0 |
| 20260503053016 | 57 | 344 | 1.0 | 1.0 | 0.00 | 0.00 | 0.00 | 63 | 1020.0 |
| 20260503052516 | 58 | 344 | 0.0 | 1.0 | 0.00 | 0.00 | 0.00 | 64 | 1020.0 |
| 20260503052016 | 57 | 344 | 0.0 | 0.0 | 0.00 | 0.00 | 0.00 | 69 | 1020.0 |
| 20260503051516 | 55 | 344 | 1.0 | 1.0 | 0.00 | 0.00 | 0.00 | 63 | 1020.0 |
| 20260503051016 | 54 | 343 | 0.0 | 0.0 | 0.00 | 0.00 | 0.00 | 67 | 1020.0 |
| 20260503050516 | 52 | 343 | 0.0 | 0.0 | 0.00 | 0.00 | 0.00 | 70 | 1020.0 |
| 20260503050016 | 51 | 342 | 0.0 | 0.0 | 0.00 | 0.00 | 0.00 | 74 | 1020.0 |
| 20260503045516 | 49 | 344 | 0.0 | 0.0 | 0.00 | 0.00 | 0.00 | 76 | 1020.0 |
| 20260503045016 | 49 | 342 | 1.0 | 1.0 | 0.00 | 0.00 | 0.00 | 82 | 1020.0 |
| 20260503044516 | 48 | 342 | 0.0 | 0.0 | 0.00 | 0.00 | 0.00 | 79 | 1020.0 |
| 20260503044016 | 47 | 343 | 0.0 | 0.0 | 0.00 | 0.00 | 0.00 | 84 | 1020.0 |
| 20260503043516 | 46 | 343 | 0.0 | 0.0 | 0.00 | 0.00 | 0.00 | 86 | 1020.0 |
| 20260503043016 | 44 | 343 | 0.0 | 0.0 | 0.00 | 0.00 | 0.00 | 94 | 1020.0 |
| 20260503042516 | 43 | 344 | 0.0 | 1.0 | 0.00 | 0.00 | 0.00 | 97 | 1020.0 |
| 20260503042016 | 42 | 344 | 0.0 | 1.0 | 0.00 | 0.00 | 0.00 | 98 | 1020.0 |
| 20260503041516 | 42 | 338 | 0.0 | 0.0 | 0.00 | 0.00 | 0.00 | 98 | 1020.0 |
| 20260503041016 | 41 | 340 | 0.0 | 0.0 | 0.00 | 0.00 | 0.00 | 98 | 1020.0 |
| 20260503040516 | 40 | 339 | 0.0 | 0.0 | 0.00 | 0.00 | 0.00 | 98 | 1020.0 |
| 20260503040016 | 39 | 339 | 0.0 | 0.0 | 0.00 | 0.00 | 0.00 | 98 | 1020.0 |
| 20260503035516 | 38 | 344 | 0.0 | 0.0 | 0.00 | 0.00 | 0.00 | 98 | 1020.0 |
| 20260503035016 | 38 | 344 | 0.0 | 0.0 | 0.00 | 0.00 | 0.00 | 98 | 1020.0 |
| 20260503034516 | 37 | 337 | 0.0 | 0.0 | 0.00 | 0.00 | 0.00 | 98 | 1020.0 |
| 20260503034016 | 37 | 341 | 0.0 | 0.0 | 0.00 | 0.00 | 0.00 | 98 | 1020.0 |
| 20260503033516 | 37 | 343 | 0.0 | 0.0 | 0.00 | 0.00 | 0.00 | 98 | 1020.0 |
| 20260503033016 | 37 | 345 | 1.0 | 1.0 | 0.00 | 0.00 | 0.00 | 98 | 1020.0 |
| 20260503032516 | 37 | 341 | 0.0 | 0.0 | 0.00 | 0.00 | 0.00 | 97 | 1020.0 |
| 20260503032016 | 37 | 341 | 0.0 | 0.0 | 0.00 | 0.00 | 0.00 | 98 | 1020.0 |
| 20260503031516 | 37 | 341 | 0.0 | 1.0 | 0.00 | 0.00 | 0.00 | 98 | 1020.0 |
| 20260503031016 | 37 | 335 | 1.0 | 1.0 | 0.00 | 0.00 | 0.00 | 98 | 1020.0 |
| 20260503030516 | 37 | 330 | 0.0 | 0.0 | 0.00 | 0.00 | 0.00 | 98 | 1020.0 |
| 20260503030016 | 37 | 335 | 0.0 | 0.0 | 0.00 | 0.00 | 0.00 | 97 | 1020.0 |
| 20260503025516 | 37 | 339 | 0.0 | 0.0 | 0.00 | 0.00 | 0.00 | 97 | 1020.0 |
| 20260503025016 | 37 | 338 | 0.0 | 0.0 | 0.00 | 0.00 | 0.00 | 97 | 1020.0 |
| 20260503024516 | 37 | 338 | 0.0 | 0.0 | 0.00 | 0.00 | 0.00 | 97 | 1020.0 |
| 20260503024016 | 38 | 338 | 0.0 | 0.0 | 0.00 | 0.00 | 0.00 | 97 | 1020.0 |
| 20260503023516 | 38 | 343 | 0.0 | 0.0 | 0.00 | 0.00 | 0.00 | 97 | 1020.0 |
| 20260503023016 | 38 | 343 | 0.0 | 0.0 | 0.00 | 0.00 | 0.00 | 97 | 1020.0 |
| 20260503022516 | 38 | 343 | 0.0 | 1.0 | 0.00 | 0.00 | 0.00 | 97 | 1020.0 |
| 20260503022016 | 37 | 343 | 0.0 | 0.0 | 0.00 | 0.00 | 0.00 | 97 | 1020.0 |
| 20260503021516 | 38 | 343 | 0.0 | 0.0 | 0.00 | 0.00 | 0.00 | 97 | 1020.0 |
| 20260503021016 | 38 | 343 | 0.0 | 0.0 | 0.00 | 0.00 | 0.00 | 97 | 1020.0 |
| 20260503020516 | 37 | 343 | 0.0 | 0.0 | 0.00 | 0.00 | 0.00 | 97 | 1020.0 |
| 20260503020016 | 38 | 345 | 0.0 | 0.0 | 0.00 | 0.00 | 0.00 | 97 | 1020.0 |
| 20260503015516 | 38 | 351 | 1.0 | 1.0 | 0.00 | 0.00 | 0.00 | 97 | 1020.0 |
| 20260503015016 | 38 | 349 | 1.0 | 1.0 | 0.00 | 0.00 | 0.00 | 97 | 1020.0 |
| 20260503014516 | 38 | 344 | 0.0 | 0.0 | 0.00 | 0.00 | 0.00 | 97 | 1020.0 |
| 20260503014016 | 38 | 346 | 1.0 | 1.0 | 0.00 | 0.00 | 0.00 | 97 | 1020.0 |
| 20260503013516 | 38 | 334 | 0.0 | 0.0 | 0.00 | 0.00 | 0.00 | 97 | 1020.0 |
| 20260503013016 | 38 | 331 | 0.0 | 0.0 | 0.00 | 0.00 | 0.00 | 97 | 1020.0 |
| 20260503012516 | 39 | 331 | 0.0 | 0.0 | 0.00 | 0.00 | 0.00 | 97 | 1020.0 |
| 20260503012016 | 39 | 344 | 1.0 | 1.0 | 0.00 | 0.00 | 0.00 | 97 | 1020.0 |
| 20260503011516 | 38 | 336 | 0.0 | 0.0 | 0.00 | 0.00 | 0.00 | 97 | 1020.0 |
| 20260503011016 | 39 | 343 | 0.0 | 0.0 | 0.00 | 0.00 | 0.00 | 97 | 1020.0 |
| 20260503010516 | 39 | 345 | 0.0 | 0.0 | 0.00 | 0.00 | 0.00 | 97 | 1020.0 |
| 20260503010016 | 39 | 342 | 1.0 | 2.0 | 0.00 | 0.00 | 0.00 | 97 | 1020.0 |
| 20260503005516 | 38 | 338 | 0.0 | 0.0 | 0.00 | 0.00 | 0.00 | 97 | 1020.0 |
| 20260503005016 | 38 | 338 | 0.0 | 0.0 | 0.00 | 0.00 | 0.00 | 96 | 1020.0 |
| 20260503004516 | 38 | 338 | 0.0 | 0.0 | 0.00 | 0.00 | 0.00 | 96 | 1020.0 |
| 20260503004016 | 39 | 338 | 0.0 | 0.0 | 0.00 | 0.00 | 0.00 | 97 | 1020.0 |
| 20260503003516 | 39 | 338 | 0.0 | 0.0 | 0.00 | 0.00 | 0.00 | 96 | 1020.0 |
| 20260503003016 | 39 | 331 | 0.0 | 0.0 | 0.00 | 0.00 | 0.00 | 96 | 1020.0 |
| 20260503002516 | 39 | 343 | 0.0 | 0.0 | 0.00 | 0.00 | 0.00 | 96 | 1020.0 |
| 20260503002016 | 39 | 344 | 0.0 | 1.0 | 0.00 | 0.00 | 0.00 | 97 | 1020.0 |
| 20260503001516 | 39 | 338 | 0.0 | 0.0 | 0.00 | 0.00 | 0.00 | 96 | 1020.0 |
| 20260503001016 | 39 | 336 | 0.0 | 0.0 | 0.00 | 0.00 | 0.00 | 96 | 1020.0 |
| 20260503000516 | 40 | 336 | 0.0 | 0.0 | 0.00 | 0.00 | 0.00 | 95 | 1020.0 |
| 20260503000016 | 40 | 343 | 1.0 | 1.0 | 0.00 | 0.00 | 0.00 | 96 | 1020.0 |
| 20260502235516 | 40 | 340 | 1.0 | 1.0 | 0.00 | 0.00 | 0.00 | 96 | 1020.0 |
| 20260502235016 | 40 | 341 | 0.0 | 0.0 | 0.00 | 0.00 | 0.00 | 95 | 1020.0 |
| 20260502234516 | 40 | 341 | 0.0 | 0.0 | 0.00 | 0.00 | 0.00 | 95 | 1020.0 |
| 20260502234016 | 40 | 342 | 0.0 | 0.0 | 0.00 | 0.00 | 0.00 | 95 | 1020.0 |
| 20260502233516 | 40 | 342 | 0.0 | 0.0 | 0.00 | 0.00 | 0.00 | 95 | 1020.3 |
| 20260502233016 | 40 | 342 | 0.0 | 0.0 | 0.00 | 0.00 | 0.00 | 95 | 1020.3 |
| 20260502232516 | 40 | 340 | 0.0 | 0.0 | 0.00 | 0.00 | 0.00 | 95 | 1020.3 |
| 20260502232016 | 41 | 336 | 1.0 | 1.0 | 0.00 | 0.00 | 0.00 | 95 | 1020.3 |
| 20260502231516 | 41 | 339 | 0.0 | 1.0 | 0.00 | 0.00 | 0.00 | 95 | 1020.3 |
| 20260502231016 | 42 | 339 | 0.0 | 0.0 | 0.00 | 0.00 | 0.00 | 95 | 1020.7 |
| 20260502230516 | 42 | 339 | 0.0 | 0.0 | 0.00 | 0.00 | 0.00 | 95 | 1020.7 |
| 20260502230016 | 42 | 338 | 1.0 | 1.0 | 0.00 | 0.00 | 0.00 | 95 | 1020.7 |
| 20260502225516 | 41 | 338 | 0.0 | 0.0 | 0.00 | 0.00 | 0.00 | 94 | 1020.7 |
| 20260502225016 | 42 | 344 | 0.0 | 0.0 | 0.00 | 0.00 | 0.00 | 94 | 1020.7 |
| 20260502224516 | 42 | 324 | 0.0 | 0.0 | 0.00 | 0.00 | 0.00 | 94 | 1020.7 |
| 20260502224016 | 42 | 332 | 0.0 | 0.0 | 0.00 | 0.00 | 0.00 | 94 | 1020.7 |
| 20260502223516 | 42 | 336 | 0.0 | 0.0 | 0.00 | 0.00 | 0.00 | 94 | 1020.7 |
| 20260502223016 | 42 | 333 | 0.0 | 0.0 | 0.00 | 0.00 | 0.00 | 93 | 1020.7 |
| 20260502222516 | 43 | 331 | 0.0 | 0.0 | 0.00 | 0.00 | 0.00 | 93 | 1020.7 |
| 20260502222016 | 43 | 332 | 0.0 | 0.0 | 0.00 | 0.00 | 0.00 | 92 | 1020.7 |
| 20260502221516 | 43 | 315 | 0.0 | 1.0 | 0.00 | 0.00 | 0.00 | 90 | 1020.7 |
| 20260502221016 | 43 | 345 | 0.0 | 0.0 | 0.00 | 0.00 | 0.00 | 90 | 1020.7 |
| 20260502220516 | 43 | 337 | 0.0 | 0.0 | 0.00 | 0.00 | 0.00 | 91 | 1020.7 |
| 20260502220016 | 43 | 330 | 0.0 | 0.0 | 0.00 | 0.00 | 0.00 | 90 | 1021.0 |
| 20260502215516 | 44 | 316 | 1.0 | 1.0 | 0.00 | 0.00 | 0.00 | 90 | 1021.0 |
| 20260502215016 | 44 | 333 | 1.0 | 1.0 | 0.00 | 0.00 | 0.00 | 90 | 1021.0 |
| 20260502214516 | 44 | 358 | 1.0 | 1.0 | 0.00 | 0.00 | 0.00 | 90 | 1021.0 |
| 20260502214016 | 44 | 335 | 0.0 | 0.0 | 0.00 | 0.00 | 0.00 | 91 | 1021.0 |
| 20260502213516 | 44 | 329 | 0.0 | 0.0 | 0.00 | 0.00 | 0.00 | 91 | 1021.0 |
| 20260502213016 | 44 | 332 | 0.0 | 0.0 | 0.00 | 0.00 | 0.00 | 93 | 1021.0 |
| 20260502212516 | 44 | 341 | 0.0 | 0.0 | 0.00 | 0.00 | 0.00 | 92 | 1021.0 |
| 20260502212016 | 45 | 341 | 0.0 | 0.0 | 0.00 | 0.00 | 0.00 | 91 | 1021.0 |
| 20260502211516 | 45 | 337 | 0.0 | 0.0 | 0.00 | 0.00 | 0.00 | 92 | 1021.0 |
| 20260502211016 | 45 | 339 | 0.0 | 0.0 | 0.00 | 0.00 | 0.00 | 92 | 1021.0 |
| 20260502210516 | 45 | 338 | 0.0 | 0.0 | 0.00 | 0.00 | 0.00 | 92 | 1021.0 |
| 20260502210016 | 45 | 337 | 0.0 | 0.0 | 0.00 | 0.00 | 0.00 | 87 | 1021.0 |
| 20260502205516 | 45 | 339 | 0.0 | 0.0 | 0.00 | 0.00 | 0.00 | 89 | 1021.0 |
| 20260502205016 | 46 | 339 | 0.0 | 0.0 | 0.00 | 0.00 | 0.00 | 92 | 1021.7 |
| 20260502204516 | 45 | 334 | 0.0 | 0.0 | 0.00 | 0.00 | 0.00 | 91 | 1021.7 |
| 20260502204016 | 46 | 335 | 0.0 | 0.0 | 0.00 | 0.00 | 0.00 | 91 | 1021.7 |
| 20260502203516 | 46 | 335 | 0.0 | 0.0 | 0.00 | 0.00 | 0.00 | 89 | 1021.7 |
| 20260502203016 | 47 | 335 | 0.0 | 0.0 | 0.00 | 0.00 | 0.00 | 85 | 1021.7 |
| 20260502202516 | 47 | 335 | 0.0 | 0.0 | 0.00 | 0.00 | 0.00 | 85 | 1021.7 |
| 20260502202016 | 47 | 330 | 0.0 | 0.0 | 0.00 | 0.00 | 0.00 | 86 | 1021.7 |
| 20260502201516 | 47 | 330 | 0.0 | 0.0 | 0.00 | 0.00 | 0.00 | 78 | 1021.7 |
| 20260502201016 | 48 | 326 | 2.0 | 2.0 | 0.00 | 0.00 | 0.00 | 81 | 1021.7 |